#timestamp,LO_Frequency,Hit,StdDev 
1564779615.2,286046998.0,N
1564779635.1,286046996.6,N
1564779636.0,286046996.6,N
1564779655.8,286046997.4,N
1564779675.7,286046996.4,N
1564779695.5,286046997.5,N
1564779715.3,286046998.0,N
1564779735.2,286046996.8,N
1564779755.0,286046999.6,N
1564779755.9,286046999.6,N
1564779775.7,286046997.3,N
1564779795.6,286046996.2,N
1564779815.4,286046996.3,N
1564779835.3,286046998.8,N
1564779855.1,286047001.4,N
1564779875.8,286047005.8,N
1564779895.7,286047008.8,Y
1564779915.5,286047012.9,P
1564779935.4,286047015.0,N
1564779955.2,286047013.0,N
1564779975.0,286047013.4,N
1564779975.9,286047013.4,N
1564779995.8,286047013.3,N
1564780015.6,286047014.9,N
1564780035.5,286047017.5,Y
1564780055.3,286047006.9,P
1564780075.1,286047007.4,P
1564780095.9,286047008.7,P
1564780115.7,286047009.9,Y
1564780135.6,286047002.9,P
1564780155.4,286047010.4,P
1564780175.3,286047011.6,P
1564780195.1,286047011.2,Y
1564780196.0,286047011.2,P
1564780215.8,286047006.5,P
1564780235.7,286047009.6,P
1564780255.5,286047012.5,Y
1564780275.4,286047003.4,P
1564780295.2,286047003.2,N
1564780315.0,286047003.6,N
1564780315.9,286047003.6,N
1564780335.8,286047005.5,N
1564780355.6,286047005.3,N
1564780375.5,286047005.7,N
1564780395.3,286047004.8,N
1564780415.1,286047003.5,N
1564780435.9,286047003.5,N
1564780455.7,286047002.0,N
1564780475.5,286047011.9,Y
1564780495.4,286046992.6,P
1564780515.2,286046992.0,N
1564780535.1,286046992.7,N
1564780536.0,286046992.7,N
1564780555.8,286046992.0,N
1564780575.6,286046992.1,N
1564780595.5,286046990.6,N
1564780615.3,286046988.9,N
1564780635.2,286046985.6,Y
1564780655.9,286046990.8,P
1564780675.7,286046990.6,P
1564780695.6,286046997.1,N
1564780715.4,286047000.1,N
1564780735.2,286047005.7,N
1564780755.1,286047007.5,N
1564780756.0,286047007.5,N
1564780775.8,286047006.3,N
1564780795.7,286047008.5,N
1564780815.5,286047004.9,N
1564780835.3,286047003.4,N
1564780855.2,286047004.1,N
1564780875.0,286047005.5,N
1564780875.9,286047005.5,N
1564780895.8,286047003.4,N
1564780915.6,286047002.1,N
1564780935.4,286046999.0,N
1564780955.3,286046997.3,N
1564780975.1,286046995.0,N
1564780995.8,286046994.9,N
1564781015.7,286046995.9,N
1564781035.5,286046994.4,N
1564781055.4,286046988.9,N
1564781075.2,286046990.9,N
1564781095.0,286046990.3,N
1564781095.9,286046990.3,N
1564781115.8,286046991.3,N
1564781135.6,286046989.1,N
1564781155.5,286046988.6,N
1564781175.3,286046992.3,N
1564781195.1,286046995.9,N
1564781215.9,286046995.6,N
1564781235.7,286046993.6,N
1564781255.5,286046994.8,N
1564781275.4,286046993.6,N
1564781295.2,286046991.6,N
1564781315.1,286046982.3,N
1564781316.0,286046982.3,N
1564781335.8,286046980.5,N
1564781355.6,286046977.5,Y
1564781375.5,286046979.0,P
1564781395.3,286046981.3,N
1564781415.1,286046987.5,N
1564781435.9,286046990.2,N
1564781455.7,286046990.3,N
1564781475.6,286046992.2,N
1564781495.4,286046993.5,N
1564781515.2,286046996.8,N
1564781535.1,286046996.9,N
1564781536.0,286046996.9,N
1564781555.8,286046997.4,N
1564781575.6,286046995.0,N
1564781595.5,286046997.5,N
1564781615.3,286046999.2,N
1564781635.2,286046998.3,N
1564781655.9,286047001.5,N
1564781675.7,286047003.0,N
1564781695.6,286047003.2,N
1564781715.4,286047005.1,N
1564781735.2,286047004.9,N
1564781755.1,286047007.0,N
1564781756.0,286047007.0,N
1564781775.8,286047007.2,N
1564781795.7,286047005.7,N
1564781815.5,286047003.7,N
1564781835.3,286047002.9,N
1564781855.2,286047004.8,N
1564781875.0,286047005.7,N
1564781875.9,286047005.7,N
1564781895.7,286047003.2,N
1564781915.6,286047003.2,N
1564781935.4,286047004.9,N
1564781955.3,286047006.8,N
1564781975.1,286047006.5,N
1564781976.0,286047006.5,N
1564781995.8,286047008.8,N
1564782015.7,286047008.9,N
1564782035.5,286047009.2,N
1564782055.3,286047005.1,N
1564782075.2,286047008.8,N
1564782095.0,286047009.2,N
1564782095.9,286047009.2,N
1564782115.8,286047007.0,N
1564782135.6,286047007.1,N
1564782155.4,286047009.2,Y
1564782175.3,286047003.6,P
1564782195.1,286047005.6,P
1564782215.9,286047005.9,P
1564782235.7,286047003.1,Y
1564782255.5,286046999.5,P
1564782275.4,286046995.4,N
1564782295.2,286046998.9,N
1564782315.0,286047002.5,N
1564782315.9,286047002.5,N
1564782335.8,286047004.4,N
1564782355.6,286047007.0,N
1564782375.5,286047012.3,Y
1564782395.3,286047010.2,P
1564782415.1,286047007.8,N
1564782435.9,286047008.1,N
1564782455.7,286047010.6,Y
1564782475.5,286047004.2,P
1564782495.4,286047003.0,N
1564782515.2,286047003.5,N
1564782535.1,286047002.0,N
1564782536.0,286047002.0,N
1564782555.8,286047000.5,N
1564782575.6,286046998.1,N
1564782595.5,286047001.9,N
1564782615.3,286046998.3,N
1564782635.1,286046998.8,N
1564782655.9,286046993.8,N
1564782675.7,286046992.0,N
1564782695.6,286046988.6,N
1564782715.4,286046990.8,N
1564782735.2,286046994.8,N
1564782755.1,286046996.9,N
1564782756.0,286046996.9,N
1564782775.8,286046997.2,N
1564782795.6,286047001.2,N
1564782815.5,286047001.0,N
1564782835.3,286046999.8,N
1564782855.2,286047003.2,N
1564782875.9,286047005.5,N
1564782895.7,286047006.4,N
1564782915.6,286047008.3,N
1564782935.4,286047008.0,N
1564782955.2,286047010.4,N
1564782975.1,286047006.3,N
1564782976.0,286047006.3,N
1564782995.8,286047004.5,N
1564783015.7,286047007.4,N
1564783035.5,286047008.6,N
1564783055.3,286047006.2,N
1564783075.2,286047010.1,N
1564783095.0,286047011.2,N
1564783095.9,286047011.2,N
1564783115.7,286047011.3,N
1564783135.6,286047013.3,N
1564783155.4,286047014.8,N
1564783175.3,286047014.5,N
1564783195.1,286047016.4,N
1564783196.0,286047016.4,N
